Overview Statistics Trail Chart Weather Telemetry Raw packets
 

This is the latest recevied weather packets stored in our database for station/object W5DNT. If no packets are shown the sender has not sent any weather packets the latest 10 day(s).

<< 15 16 17 18 19 20 21 >>
Time Temp. Humidity Pressure Rain* Wind** Luminosity Snow
1788273903 28.33° C 68% 1016.1 hPa 0 mm - - -
1788273067 27.78° C 70% 1016.1 hPa 0 mm - - -
1788272167 27.22° C 70% 1015.9 hPa 0 mm - - -
1788271256 26.67° C 71% 1016.1 hPa 0 mm - - -
1788270353 26.11° C 73% 1015.9 hPa 0 mm - - -
1788269452 25.56° C 73% 1016 hPa 0 mm - - -
1788268552 24.44° C 74% 1015.9 hPa 0 mm - - -
1788267647 23.33° C 72% 1015.7 hPa 0 mm - - -
1788266745 22.78° C 70% 1015.5 hPa 0 mm - - -
1788265841 - - 1015.3 hPa 0 mm - - -
1788264940 - - 1015.1 hPa 0 mm - - -
1788264031 - - 1015.1 hPa 0 mm - - -
1788263130 23.33° C 69% 1015 hPa 0 mm - - -
1788262228 23.33° C 69% 1015.1 hPa 0 mm - - -
1788261327 23.33° C 69% 1015.3 hPa 0 mm - - -
1788260426 23.89° C 69% 1014.9 hPa 0 mm - - -
1788259526 23.89° C 67% 1015 hPa 0 mm - - -
1788258639 23.89° C 67% 1015 hPa 0 mm - - -
1788257722 23.89° C 66% 1014.7 hPa 0 mm - - -
1788256820 24.44° C 66% 1014.7 hPa 0 mm - - -
1788255919 24.44° C 66% 1014.7 hPa 0 mm - - -
1788255018 24.44° C 65% 1014.9 hPa 0 mm - - -
1788254117 24.44° C 65% 1014.9 hPa 0 mm - - -
1788253218 24.44° C 64% 1014.9 hPa 0 mm - - -
1788252314 25° C 64% 1014.8 hPa 0 mm - - -

* Rain latest hour (hover to see other rain measurements)
** Current wind speed in m/s (hover to see current wind gust speed)